Tracking 25709 objects as of 24-May-2022
HD Live streaming from Space Station
objects crossing your sky now

BREEZE-M DEB (TANK)

Track BREEZE-M DEB (TANK) now!


NORAD ID: 28477
Int'l Code: 2004-041C
Perigee: 1,502.2 km
Apogee: 35,130.2 km
Inclination: 48.2 °
Period: 643.4 minutes
Semi major axis: 24687 km
RCS: 7.1658 m2 (large)
Launch date: October 14, 2004
Source: Commonwealth of Independent States (former USSR) (CIS)
Launch site: TYURATAM MISSILE AND SPACE COMPLEX (TTMTR)

Note: This is SATELLITE DEBRIS
aabbcc
Your satellite tracking list
Your tracking list is empty




NASA's NSSDC Master Catalog

Two Line Element Set (TLE):
1 28477U 04041C   22143.01531372 -.00000192  00000-0  00000-0 0  9994
2 28477  48.2266  68.6716 6810807 185.2532 159.9643  2.23817498143760
Source of the keplerian elements: AFSPC